STARLINK-32049, 60199

Orbit data source: Space-Track

STARLINK-32049, 60199 is a payload satellite owned by SpaceX/Seattle (US) in LEO that was launched on Wed, 03 Jul 2024 UTC via an FALCON 9 launch vehicle from the Air Force Eastern Test Range (AFETR). Payload-class satellites include a variety of spacecraft equipped with specific instruments for various scientific and technological missions. These include communications satellites like Starlink; space stations such as the ISS; scientific satellites like the Hubble; Earth observation satellites from companies like Planet Labs, Umbra, and HawkEye 360; GPS; miniature CubeSats for education and research; and military/defense satellites.

Loading next visibility...
Identifier
60199, 2024-124S
Orbit
LEO
Country
Flag of USUS
Related business
Manufacturer
SpaceX/Seattle
Mission
Operational Commercial Communications
Bus & Motor
STARLINK V2M, Unknown motor
Mass
730 kg wet, ~700 kg dry
Launch date (UTC)
2024-07-03 (2 years ago)
Launch vehicle
FALCON 9
Launch site
Air Force Eastern Test Range (AFETR)
Object type
Payload
Rocket body
Debris
Shape & HBR
Box + 2 Pan, 17.7 m
Radar Cross Section
33.884 m², Large (>1 m²)

Expand to show TLE details & history
Last TLE update: 17 hours ago

TLE from 17 hours ago
0 STARLINK-32049
1 60199U 24124S   26177.29539744 -.00000779  00000-0 -11919-4 0  9994
2 60199  53.1580 176.6232 0000984  90.0594 270.0521 15.34402907112178
Epoch: 2026-06-26T07:05Z
TLE epoch observation values (Epoch: 2026-06-26T07:05:22.338Z)
Latitude
-0.00006°
Longitude
155.85412°
Altitude
463.595 km
Speed
7.636 km/s
True Right ascension
11h 46m 29s
True Declination
0° 00' 00"
Sunlit
Object was in daylight at epoch
Visualization orbit readout
Latitude
Unknown
Longitude
Unknown
Altitude
Unknown
Speed
Unknown
Apparent Right ascension
Unknown
Apparent Declination
Unknown
Sunlit
N/A
Visualization observer readout
Local Sidereal Time
10:56:39
Azimuth
Unknown
Elevation
Unknown
Doppler factor
Unknown
Orbital elements
Apogee altitude
463.625 km
Perigee altitude
462.279 km
Semi-major axis
6,841.089 km
Eccentricity
0.0001
Inclination
53.158°
RAAN
176.6232°
Arg. of periapsis
90.0594°
True anomaly
270.04082°
Mean anomaly
270.0521°
Eccentric anomaly
270.04646°
Mean motion
3.83579 °/min
Orbital period
93.85 mins
BSTAR
-0.000011919
Loading maneuver chart data...
Computing Atmospheric mass density...
Loading historical data...
Loading historical data...
Loading historical data...
Loading historical data...
Loading historical data...
Loading historical data...
Loading historical data...

Documentation

Showing up to 5 results
|